TIME,DELAY(SENSOR),PRES,OXYGEN,RAWTEMP,T(OPTODE),TCPHASE,FLUOR,BETA(BETA700),BETA(BETA412),BETA(BETA440),CDOM,C(CSC),ED(ED412.20),ED(ED444.00),ED(ED489.60),ED(ED554.30),LU(LU412.10),LU(LU443.90),LU(LU489.70),LU(LU554.70),COMP,TILTX,TILTY,CHECK
1350444083,5809,896.1099853515625000,35.3001403808593750,556.5933837890625000,4.5914268493652340,56.1988296508789060,54,100,100,78,82,15457,0,0,0,0,2147129097,2147774272,2147574720,2147570285,813,3,13,29957
1350447679,5810,948.1599731445312000,40.4673690795898440,564.1710815429688000,4.3565540313720700,55.4883003234863300,55,100,101,78,82,15455,0,0,0,0,2147122870,2147770304,2147575670,2147572214,3542,3,13,14250
1350451279,5812,963.7299804687500000,40.8801002502441400,564.9633789062500000,4.3319702148437500,55.4274101257324200,54,100,100,78,81,15449,0,0,0,0,2147123364,2147767030,2147573238,2147568886,35,3,13,56648
1350454879,5810,999.9400024414062000,38.8139801025390600,565.2097167968750000,4.3243260383605960,55.7452812194824200,54,97,101,78,83,15448,0,0,0,0,2147125156,2147774116,2147572781,2147569974,3458,3,13,26977
1350458479,5810,1002.6300048828125000,38.8178710937500000,565.1380004882812000,4.3265500068664550,55.7449684143066400,55,98,99,78,81,15437,0,0,0,0,2147122642,2147768274,2147571812,2147569618,3517,3,13,14262
1350462079,5809,999.8900146484375000,38.8922500610351560,565.9528198242188000,4.3012619018554690,55.7396392822265600,56,99,100,79,83,15447,0,0,0,0,2147126930,2147767707,2147568475,2147571081,3107,3,13,54181
1350465679,5810,1000.9199829101562000,39.0531387329101560,566.2687988281250000,4.2914509773254395,55.7211494445800800,55,96,101,79,80,15467,0,0,0,0,2147124608,2147765997,2147572964,2147570980,3455,3,13,32749
1350469279,5810,1004.0200195312500000,38.7889595031738300,566.2033081054688000,4.2934842109680180,55.7597312927246100,56,100,100,78,82,15465,0,0,0,0,2147121508,2147778276,2147576429,2147574272,3305,3,13,24269
1350472879,5809,1005.0200195312500000,38.9510917663574200,566.7844238281250000,4.2754440307617190,55.7397499084472660,54,97,101,77,82,15469,0,0,0,0,2147125595,2147770496,2147576320,2147572425,289,3,13,17382
1350476479,5810,1004.3599853515625000,38.6428794860839840,567.1148071289062000,4.2651839256286620,55.7852592468261700,55,100,100,78,83,15468,0,0,0,0,2147123044,2147765997,2147574866,2147572525,5,3,13,399
1350480079,5810,1012.7299804687500000,38.6664810180664060,566.0098876953125000,4.2994861602783200,55.7728996276855500,55,96,99,78,81,15465,0,0,0,0,2147123081,2147773750,2147573494,2147574720,351,3,13,65161
1350483679,5809,1018.6300048828125000,38.5408897399902340,565.9050292968750000,4.3027420043945310,55.7928886413574200,55,98,101,79,83,15467,0,0,0,0,2147124690,2147770368,2147570550,2147572251,3595,3,13,8939
1350487279,5810,1017.0900268554688000,37.8316688537597660,565.6641845703125000,4.3102188110351560,55.8978614807128900,56,98,100,78,80,15469,0,0,0,0,2147124013,2147769206,2147575341,2147569508,206,3,13,64483
1350490879,5809,1016.3800048828125000,38.5725402832031250,566.2487182617188000,4.2920761108398440,55.7932395935058600,55,97,100,78,83,15468,0,0,0,0,2147123419,2147772818,2147570587,2147572233,3241,3,13,33137
1350494479,5812,1009.8300170898438000,38.6167907714843750,566.9854736328125000,4.2692008018493650,55.7918205261230500,55,98,100,78,84,15459,0,0,0,0,2147121353,2147774518,2147569755,2147572352,2147,3,13,9613
1350498079,5810,1011.9099731445312000,39.2343597412109400,567.8881835937500000,4.2411670684814450,55.7097091674804700,54,100,100,78,84,15480,0,0,0,0,2147124818,2147774838,2147572068,2147568694,360,3,13,4374
1350501679,5810,1018.9600219726562000,38.3704681396484400,566.2177734375000000,4.2930359840393070,55.8249702453613300,55,99,102,78,84,15496,0,0,0,0,2147123419,2147772589,2147572388,2147572178,3064,3,13,63804
1350505279,5811,1018.9899902343750000,38.3800697326660160,566.3870239257812000,4.2877807617187500,55.8210601806640600,54,98,100,78,83,15483,0,0,0,0,2147125229,2147773174,2147572909,2147571346,3462,3,13,45510
1350508879,5810,1018.9500122070312000,38.5625915527343750,566.3181762695312000,4.2899188995361330,55.7907905578613300,55,96,99,78,83,15488,0,0,0,0,2147122816,2147773897,2147573622,2147569828,3464,3,13,38063
1350512479,5809,1012.2399902343750000,38.6084289550781250,566.7813110351562000,4.2755389213562010,55.7886695861816400,56,98,100,77,83,15488,0,0,0,0,2147122285,2147774189,2147575168,2147574793,607,3,13,29652
1350516079,5809,1016.2800292968750000,38.9389305114746100,567.8698730468750000,4.2417349815368650,55.7539100646972660,55,97,100,78,83,15494,0,0,0,0,2147119954,2147769133,2147573120,2147573833,3401,3,13,18628
1350519679,5810,1020.0700073242188000,39.1686706542968750,567.6203002929688000,4.2494869232177730,55.7172203063964840,56,102,100,78,81,15485,0,0,0,0,2147125257,2147768649,2147569005,2147572955,3459,3,13,17583
1350523279,5812,1022.2800292968750000,39.1598014831543000,567.6193847656250000,4.2495141029357910,55.7176399230957000,55,99,101,77,83,15491,0,0,0,0,2147122459,2147770075,2147573897,2147569526,3569,3,13,24029
1350526879,5808,1015.1599731445312000,38.8069915771484400,568.1810913085938000,4.2320709228515625,55.7790489196777340,55,97,100,79,82,15491,0,0,0,0,2147126427,2147773001,2147571904,2147570029,3254,3,13,57235
1350530479,5812,1015.4000244140625000,38.7450599670410160,568.9865722656250000,4.2070469856262210,55.7959403991699200,55,98,101,78,82,15492,0,0,0,0,2147124580,2147770706,2147574317,2147571894,3524,3,13,47735
1350534079,5812,1009.2800292968750000,39.5846214294433600,569.2747802734375000,4.1980929374694820,55.6695594787597660,55,100,101,78,83,15489,0,0,0,0,2147124854,2147774793,2147577088,2147569929,672,3,13,7543
1350537679,5813,1021.8499755859375000,40.2743606567382800,569.2235717773438000,4.1996860504150390,55.5653915405273440,54,98,100,77,82,15490,0,0,0,0,2147122486,2147772964,2147574491,2147572763,64,3,13,62600
1350541279,5811,1022.9099731445312000,39.9572792053222660,569.2006835937500000,4.2003970146179200,55.6104698181152340,55,98,101,78,81,15493,0,0,0,0,2147122660,2147774400,2147571501,2147570633,68,3,13,64119
1350544879,5811,1018.1900024414062000,39.6898498535156250,568.6691894531250000,4.2169089317321780,55.6500816345214840,55,98,99,78,83,15490,0,0,0,0,2147123602,2147769654,2147573888,2147568886,101,3,13,1650
1350548479,5812,1017.8099975585938000,39.8028602600097660,568.4755859375000000,4.2229208946228030,55.6273689270019500,54,98,102,76,82,15523,0,0,0,0,2147126774,2147776320,2147578889,2147570715,41,3,13,34303
1350552079,5811,1028.2199707031250000,39.6764488220214840,567.8051147460938000,4.2437481880187990,55.6394615173339840,56,99,99,78,82,15522,0,0,0,0,2147122953,2147771282,2147577673,2147570916,1745,3,13,39717
1350555679,5809,1024.2800292968750000,38.8184089660644500,566.9008789062500000,4.2718281745910645,55.7637100219726560,54,97,101,79,83,15524,0,0,0,0,2147125083,2147771584,2147573275,2147569517,1021,3,13,55715
1350559279,5812,1020.3699951171875000,37.8906784057617200,567.8217163085938000,4.2432332038879395,55.9085693359375000,54,98,101,77,81,15523,0,0,0,0,2147122166,2147771172,2147569426,2147572653,369,3,13,21541
1350562879,5807,1014.7000122070312000,40.0461006164550800,569.5806274414062000,4.1885929107666020,55.6025695800781250,55,99,101,77,81,15445,0,0,0,0,2147125238,2147769261,2147573915,2147572205,1286,3,13,33808
1350566479,5811,1022.7899780273438000,39.6471214294433600,568.9105224609375000,4.2094140052795410,55.6587104797363300,55,99,100,78,83,15447,0,0,0,0,2147123136,2147768146,2147570596,2147572498,3588,3,13,25194
1350570079,5810,1024.0100097656250000,40.1076393127441400,568.9295043945312000,4.2088217735290530,55.5849113464355500,55,97,101,79,82,15444,0,0,0,0,2147125046,2147771867,2147574144,2147571456,195,3,13,13633
1350573679,5811,1023.9600219726562000,39.3067893981933600,568.8242187500000000,4.2120947837829590,55.7044486999511700,55,97,100,78,82,15445,0,0,0,0,2147120219,2147773504,2147570752,2147568795,273,3,13,17629
1350577279,5811,1022.8800048828125000,38.8753585815429700,567.7152709960938000,4.2465357780456540,55.7595901489257800,54,101,101,77,84,15443,0,0,0,0,2147121307,2147772708,2147575195,2147570102,3337,3,13,28990
1350580879,5808,1027.0699462890625000,39.2956390380859400,567.7180175781250000,4.2464537620544430,55.6966400146484400,54,98,100,77,81,15441,0,0,0,0,2147124260,2147769581,2147571904,2147570541,3415,3,13,57678
1350584479,5809,1026.4200439453125000,39.2701797485351560,567.5308227539062000,4.2522659301757810,55.6995315551757800,55,98,100,78,82,15441,0,0,0,0,2147125065,2147770294,2147572790,2147568941,3464,3,13,29312
1350588079,5813,1026.8499755859375000,39.3259696960449200,568.2412109375000000,4.2302041053771970,55.6999397277832000,55,99,100,78,82,15438,0,0,0,0,2147122075,2147767140,2147576832,2147567469,33,3,13,40944
1350588356,5812,1028.1700439453125000,39.4392318725585940,567.8867797851562000,4.2412090301513670,55.6783103942871100,56,99,100,78,82,15440,0,0,0,0,2147123346,2147768000,2147572068,2147570020,1,3,13,1279
